Location: Wapato
(46.4478°N, 120.4212°W)
Time: 08:45:24
(UTC+00:00)

Injun/Solrad 3 - Pass Details

Date: 16 May 2026
Orbit: 867 x 989 km, 66.8° (Epoch: 10 June)

Event Time Altitude Azimuth Distance (km) Brightness Sun altitude
Rises 05:37:20 0° 326° (NW) 3,657 12.8 -17.1°
Reaches altitude 10° 05:40:49 10° 345° (NNW) 2,727 11.5 -17.5°
Maximum altitude 05:45:07 18° 27° (NNE) 2,189 10.2 -17.9°
Drops below altitude 10° 05:49:27 10° 70° (ENE) 2,750 10.2 -18.3°
Enters shadow 05:52:38 - 87° (E) 3,604 10.7 -18.6°
Sets 05:52:57 0° 88° (E) 3,699 - -18.6°
